GW0308 Weather Reports


Display with metric or nautical units.
time (UTC)temp
F
wind
direction
speed
MPH
gust
MPH
rain 1hr
in
rain 24hr
in
rain mn
in
humidity
%
barometer
mb
20260503201003 66 198 7.0 16.0 0.00 0.00 0.00 43 1004.8
20260503200503 66 190 8.0 16.0 0.00 0.00 0.00 44 1004.9
20260503200004 66 189 8.0 16.0 0.00 0.00 0.00 44 1004.9
20260503195503 66 196 7.0 14.0 0.00 0.00 0.00 44 1004.9
20260503195003 66 196 7.0 14.0 0.00 0.00 0.00 43 1005.0
20260503194503 66 194 8.0 15.0 0.00 0.00 0.00 44 1005.1
20260503194004 66 195 8.0 15.0 0.00 0.00 0.00 43 1005.2
20260503193503 65 195 7.0 15.0 0.00 0.00 0.00 47 1005.3
20260503193003 65 196 7.0 16.0 0.00 0.00 0.00 48 1005.4
20260503192524 65 197 8.0 16.0 0.00 0.00 0.00 47 1005.4
20260503192003 64 195 8.0 16.0 0.00 0.00 0.00 47 1005.5
20260503191503 64 192 8.0 15.0 0.00 0.00 0.00 49 1005.6
20260503191003 64 190 7.0 15.0 0.00 0.00 0.00 47 1005.6
20260503190504 64 202 7.0 13.0 0.00 0.00 0.00 46 1005.7
20260503190003 64 214 7.0 16.0 0.00 0.00 0.00 47 1005.7
20260503185525 64 212 8.0 16.0 0.00 0.00 0.00 46 1005.8
20260503185024 64 204 8.0 15.0 0.00 0.00 0.00 47 1005.9
20260503184504 63 195 8.0 18.0 0.00 0.00 0.00 48 1005.9
20260503184003 63 194 9.0 18.0 0.00 0.00 0.00 46 1005.8
20260503183524 63 196 8.0 19.0 0.00 0.00 0.00 48 1006.0
20260503183024 63 196 8.0 19.0 0.00 0.00 0.00 46 1006.1
20260503182503 63 194 9.0 18.0 0.00 0.00 0.00 46 1006.0
20260503182003 63 197 10.0 18.0 0.00 0.00 0.00 45 1006.1
20260503181504 63 200 9.0 18.0 0.00 0.00 0.00 46 1006.0
20260503181004 63 194 9.0 18.0 0.00 0.00 0.00 47 1006.2
20260503180503 62 195 9.0 19.0 0.00 0.00 0.00 49 1006.2
20260503180024 62 193 10.0 20.0 0.00 0.00 0.00 49 1006.3
20260503175504 62 188 10.0 20.0 0.00 0.00 0.00 49 1006.3
20260503175004 62 187 10.0 18.0 0.00 0.00 0.00 49 1006.4
20260503174503 62 185 10.0 18.0 0.00 0.00 0.00 48 1006.5
20260503174003 62 185 10.0 20.0 0.00 0.00 0.00 49 1006.7
20260503173503 62 186 10.0 22.0 0.00 0.00 0.00 50 1006.7
20260503173024 62 191 9.0 22.0 0.00 0.00 0.00 50 1006.7
20260503172504 62 193 8.0 18.0 0.00 0.00 0.00 50 1007.0
20260503172025 62 190 9.0 20.0 0.00 0.00 0.00 53 1007.0
20260503171503 61 189 9.0 20.0 0.00 0.00 0.00 53 1007.1
20260503171024 61 191 9.0 19.0 0.00 0.00 0.00 54 1007.3
20260503170503 60 192 9.0 19.0 0.00 0.00 0.00 54 1007.4
20260503151003 53 191 5.0 11.0 0.00 0.00 0.00 69 1009.2
20260503150524 53 192 5.0 11.0 0.00 0.00 0.00 69 1009.2
20260503131003 52 204 5.0 9.0 0.00 0.00 0.00 61 1009.8
20260503130503 52 202 5.0 9.0 0.00 0.00 0.00 61 1009.8
20260503110503 47 194 2.0 4.0 0.00 0.00 0.00 62 1010.1
20260503090503 48 192 3.0 7.0 0.00 0.00 0.00 57 1010.9
20260503081503 48 198 2.0 5.0 0.00 0.00 0.00 57 1011.4
20260503081003 48 193 2.0 6.0 0.00 0.00 0.00 57 1011.3
20260503080503 48 193 3.0 8.0 0.00 0.00 0.00 57 1011.3
20260503072503 48 189 3.0 6.0 0.00 0.00 0.00 56 1011.4
20260503072003 48 190 4.0 6.0 0.00 0.00 0.00 56 1011.5
20260503071524 48 189 3.0 5.0 0.00 0.00 0.00 56 1011.6
20260503071003 48 189 3.0 5.0 0.00 0.00 0.00 55 1011.6
20260503070503 48 188 3.0 7.0 0.00 0.00 0.00 56 1011.6
20260503055024 49 192 2.0 4.0 0.00 0.00 0.00 56 1012.3
20260503054503 49 191 2.0 5.0 0.00 0.00 0.00 55 1012.4
20260503054003 49 186 2.0 5.0 0.00 0.00 0.00 55 1012.4
20260503053503 49 186 2.0 5.0 0.00 0.00 0.00 55 1012.4
20260503053003 48 187 2.0 5.0 0.00 0.00 0.00 56 1012.5
20260503052503 48 186 1.0 4.0 0.00 0.00 0.00 56 1012.5
20260503052003 48 183 1.0 3.0 0.00 0.00 0.00 56 1012.6
20260503051503 48 190 1.0 4.0 0.00 0.00 0.00 56 1012.6
20260503051003 48 197 2.0 4.0 0.00 0.00 0.00 56 1012.7
20260503050503 48 197 2.0 5.0 0.00 0.00 0.00 56 1012.7
20260503050003 48 196 2.0 6.0 0.00 0.00 0.00 56 1012.6
20260503045503 48 191 2.0 6.0 0.00 0.00 0.00 57 1012.6
20260503045003 48 186 2.0 5.0 0.00 0.00 0.00 56 1012.7
20260503044503 48 188 2.0 5.0 0.00 0.00 0.00 56 1012.7
20260503044025 48 192 2.0 5.0 0.00 0.00 0.00 56 1012.7
20260503043503 48 188 2.0 5.0 0.00 0.00 0.00 56 1012.8
20260503043003 48 184 2.0 5.0 0.00 0.00 0.00 57 1012.8
20260503042524 48 184 2.0 4.0 0.00 0.00 0.00 57 1012.8
20260503042003 48 189 2.0 4.0 0.00 0.00 0.00 57 1012.9
20260503041503 48 195 1.0 4.0 0.00 0.00 0.00 57 1012.9
20260503041003 47 197 1.0 4.0 0.00 0.00 0.00 57 1012.9
20260503040524 47 197 1.0 4.0 0.00 0.00 0.00 58 1013.0
20260503040003 47 197 1.0 2.0 0.00 0.00 0.00 57 1013.1
20260503035503 47 197 1.0 2.0 0.00 0.00 0.00 58 1013.1
20260503035003 47 197 1.0 2.0 0.00 0.00 0.00 57 1013.1
20260503034503 47 197 1.0 2.0 0.00 0.00 0.00 57 1013.2
20260503034024 48 197 1.0 2.0 0.00 0.00 0.00 57 1013.3
20260503033503 48 197 1.0 2.0 0.00 0.00 0.00 57 1013.3
20260503033003 48 197 1.0 2.0 0.00 0.00 0.00 57 1013.3
20260503032503 48 197 1.0 2.0 0.00 0.00 0.00 56 1013.4
20260503032003 48 197 1.0 2.0 0.00 0.00 0.00 56 1013.4
20260503031503 48 197 1.0 2.0 0.00 0.00 0.00 56 1013.4
20260503031003 48 197 1.0 2.0 0.00 0.00 0.00 56 1013.5
20260503030524 48 197 0.0 1.0 0.00 0.00 0.00 56 1013.6
20260503030003 48 197 0.0 1.0 0.00 0.00 0.00 55 1013.6
20260503025503 49 197 0.0 1.0 0.00 0.00 0.00 54 1013.7
20260503025024 49 197 0.0 1.0 0.00 0.00 0.00 54 1013.6
20260503024524 49 197 0.0 2.0 0.00 0.00 0.00 53 1013.6
20260503024003 49 197 0.0 2.0 0.00 0.00 0.00 53 1013.6
20260503023503 49 197 0.0 1.0 0.00 0.00 0.00 52 1013.6
20260503023003 50 197 0.0 1.0 0.00 0.00 0.00 52 1013.6
20260503022503 50 197 0.0 1.0 0.00 0.00 0.00 52 1013.6
20260503022003 50 197 0.0 2.0 0.00 0.00 0.00 51 1013.6
20260503021503 50 197 0.0 2.0 0.00 0.00 0.00 51 1013.6
20260503021024 50 197 0.0 2.0 0.00 0.00 0.00 51 1013.6
20260503020503 50 0 0.0 0.0 0.00 0.00 0.00 51 1013.6
20260503020003 51 0 0.0 0.0 0.00 0.00 0.00 50 1013.6
20260503015524 51 0 0.0 0.0 0.00 0.00 0.00 49 1013.5
20260503015003 51 0 0.0 0.0 0.00 0.00 0.00 49 1013.5
20260503014524 51 0 0.0 0.0 0.00 0.00 0.00 49 1013.5
20260503014003 52 0 0.0 0.0 0.00 0.00 0.00 48 1013.4
20260503013503 52 0 0.0 0.0 0.00 0.00 0.00 48 1013.4
20260503013003 52 0 0.0 0.0 0.00 0.00 0.00 47 1013.4
20260503012503 52 197 0.0 1.0 0.00 0.00 0.00 46 1013.4
20260503012003 53 197 0.0 2.0 0.00 0.00 0.00 46 1013.4
20260503011503 53 197 0.0 2.0 0.00 0.00 0.00 45 1013.4
20260503011024 53 0 0.0 0.0 0.00 0.00 0.00 45 1013.4
20260503010503 54 197 0.0 1.0 0.00 0.00 0.00 44 1013.3
20260503010003 54 197 0.0 1.0 0.00 0.00 0.00 43 1013.4
20260503005503 55 197 0.0 2.0 0.00 0.00 0.00 42 1013.4
20260503005024 55 197 1.0 4.0 0.00 0.00 0.00 41 1013.4
20260503004504 55 204 1.0 4.0 0.00 0.00 0.00 40 1013.4
20260503004003 56 217 1.0 4.0 0.00 0.00 0.00 39 1013.4
20260503003503 56 225 1.0 4.0 0.00 0.00 0.00 38 1013.4
20260503003003 56 217 1.0 5.0 0.00 0.00 0.00 38 1013.4
20260503002504 57 223 2.0 7.0 0.00 0.00 0.00 37 1013.4
20260503002003 57 233 2.0 7.0 0.00 0.00 0.00 36 1013.4
20260503001504 57 223 2.0 6.0 0.00 0.00 0.00 36 1013.4
20260503001003 58 218 2.0 6.0 0.00 0.00 0.00 36 1013.4
20260503000503 58 237 2.0 6.0 0.00 0.00 0.00 36 1013.4
20260503000003 58 236 2.0 6.0 0.00 0.00 0.00 37 1013.5
20260502235524 58 237 2.0 8.0 0.00 0.00 0.00 36 1013.5
20260502235003 58 251 2.0 8.0 0.00 0.00 0.00 36 1013.5
20260502234503 57 245 2.0 8.0 0.00 0.00 0.00 36 1013.6
20260502234003 57 235 2.0 8.0 0.00 0.00 0.00 36 1013.7
20260502233503 57 257 3.0 8.0 0.00 0.00 0.00 36 1013.7
20260502233003 57 264 4.0 9.0 0.00 0.00 0.00 36 1013.7
20260502232525 58 252 4.0 9.0 0.00 0.00 0.00 35 1013.8
20260502232003 58 234 2.0 8.0 0.00 0.00 0.00 35 1013.8
20260502231503 58 247 3.0 11.0 0.00 0.00 0.00 35 1013.8
20260502231003 59 246 4.0 11.0 0.00 0.00 0.00 34 1014.0
20260502230524 59 245 3.0 11.0 0.00 0.00 0.00 33 1013.9
20260502230003 59 240 3.0 11.0 0.00 0.00 0.00 35 1013.9
20260502225503 59 221 3.0 6.0 0.00 0.00 0.00 33 1014.0
20260502225003 59 240 4.0 9.0 0.00 0.00 0.00 33 1014.1
20260502224503 59 259 5.0 12.0 0.00 0.00 0.00 32 1014.1
20260502224003 59 258 5.0 12.0 0.00 0.00 0.00 33 1014.1
20260502223503 59 246 4.0 8.0 0.00 0.00 0.00 33 1014.1
20260502223003 59 245 4.0 10.0 0.00 0.00 0.00 35 1014.2
20260502222524 60 255 4.0 10.0 0.00 0.00 0.00 33 1014.2
20260502222003 60 259 3.0 11.0 0.00 0.00 0.00 33 1014.2
20260502221503 59 259 4.0 11.0 0.00 0.00 0.00 34 1014.3
20260502221004 59 257 5.0 12.0 0.00 0.00 0.00 34 1014.3
20260502220524 58 244 4.0 12.0 0.00 0.00 0.00 35 1014.3
20260502220003 58 234 3.0 9.0 0.00 0.00 0.00 34 1014.4
20260502215503 57 244 3.0 7.0 0.00 0.00 0.00 34 1014.5
20260502215003 58 262 3.0 7.0 0.00 0.00 0.00 33 1014.4
20260502214524 57 243 3.0 10.0 0.00 0.00 0.00 34 1014.4
20260502214003 57 216 3.0 10.0 0.00 0.00 0.00 34 1014.5
20260502213503 58 216 3.0 9.0 0.00 0.00 0.00 33 1014.6
20260502213003 58 241 3.0 12.0 0.00 0.00 0.00 33 1014.5
20260502212503 58 266 5.0 12.0 0.00 0.00 0.00 32 1014.6
20260502212004 58 255 6.0 11.0 0.00 0.00 0.00 33 1014.7
20260502211503 57 238 4.0 10.0 0.00 0.00 0.00 36 1014.8
20260502211024 57 241 3.0 10.0 0.00 0.00 0.00 35 1014.7
20260502210503 57 246 4.0 15.0 0.00 0.00 0.00 32 1014.8
20260502210004 57 257 5.0 15.0 0.00 0.00 0.00 34 1014.9
20260502205524 57 256 5.0 14.0 0.00 0.00 0.00 34 1014.9
20260502205025 57 252 5.0 14.0 0.00 0.00 0.00 33 1015.0
20260502204504 57 245 4.0 11.0 0.00 0.00 0.00 36 1015.0
20260502204024 57 263 3.0 8.0 0.00 0.00 0.00 34 1015.0
20260502203503 57 275 3.0 10.0 0.00 0.00 0.00 34 1015.2
20260502203003 57 265 4.0 10.0 0.00 0.00 0.00 35 1015.3
20260502202503 57 244 4.0 10.0 0.00 0.00 0.00 34 1015.3
20260502202003 57 230 4.0 10.0 0.00 0.00 0.00 34 1015.4